OBJECT F
1 37854U 11061F   11302.87272970  .00031269  00000-0  25123-2 0    26
2 37854 101.6987 233.3835 0256260 288.7205 068.6394 14.77687338   191
OBJECT G
1 37855U 11061G   11302.87272701  .00005061  00000-0  41578-3 0    34
2 37855 101.7081 233.4066 0257546 289.0631 068.2617 14.77654712   194




Mark L. Hammond  [N8MH]
======================================================================

--
*Carl W8KRF*


------------------------------

Message: 7
Date: Sun, 30 Oct 2011 14:28:29 -0400
From: "Mark L. Hammond" <marklhammond@xxxxx.xxx>
To: Kevin Gordon <kgordon@xxxxxxxx.xxx.xx>, amsat-bb@xxxxx.xxx
Subject: [amsat-bb] Re: Charge for Satellite Tracking?
Message-ID: <r6UV1h00Q4ltuWb056UWBV@xxxxx.xxx>
Content-Type: text/plain; charset="us-ascii"

So you all aren't going to help unless they "pay" you? Wow.  Now who seems
like it's all about the money :)

I've been helping with JUGNU, SRMSAT, RAX-2, etc. because it's FUN for me. 
And, they need the help.

Take the HIGH road!

73,

Mark N8MH

At 07:13 AM 10/31/2011 +1300, Kevin Gordon wrote:
>Thank you Domenico.
>You understood my email exactly. Today Universities are commerical.
Universities and other Commerical organisations need world wide reporting
services and data collection ("tracking") of satellites.
>
>Only w>From: "Kevin Gordon" <kgordon@xxxxxxxx.xxx.xx>
>To: <amsat-bb@xxxxx.xxx>
>Sent: Sunday, October 30, 2011 2:29 AM
>Subject: [amsat-bb] Charge for Satellite Tracking?
>
>> If a satellite does not provide amateur radio services, why not charge
>> for satellite tracking?
>>
>> We could at least ask for a fixed amount per satellite as a donation
>> to our amateur radio satellite fund in lieu of tracking services.
>>
>> Thousands of satellites will be placed in orbit in the coming years.
>> We must lay claim to our share of orbit space by placing satellites in
orbit.
>>
>> Just a thought!
>>
>> Kevin zl1bgk
>>
>
>
>
>_______________________________________________
>Sent via AMSAT-BB@xxxxx.xxx. Opinions expressed are those of the author.
>Not an AMSAT-NA member? Join now to support the amateur satellite program!
>Subscription settings: http://amsat.org/mailman/listinfo/amsat-bb



------------------------------

Message: 8
Date: Sun, 30 Oct 2011 18:29:46 +0000
From: "Nigel A. Gunn, W8IFF/G8IFF" <nigel@xxxxx.xxx>
To: i8cvs <domenico.i8cvs@xxx.xx>
Cc: Amsat - BBs <amsat-bb@xxxxx.xxx>
Subject: [amsat-bb] Re: New Launch
Message-ID: <4EAD979A.5080700@xxxxx.xxx>
Content-Type: text/plain; charset=ISO-8859-1; format=flowed

True but they're all listed as launch 061 of 2011.

On 30/10/11 18:00, i8cvs wrote:
> Hi Nigel, W8IFF
>
> The inclination is not the same for all so that those OBJECTS seems to
 289.0631 068.2617 14.77654712   194
>> OBJECT H
>> 1 37856U 11061H   11303.53330434  .00817553  77249-5  81830-3 0    44
>> 2 37856 107.3170 237.6855 0390613 329.7694 028.1472 15.39999395   318
>>
>>
>> _______________________________________________
>> Sent via AMSAT-BB@xxxxx.xxx. Opinions expressed are those of the author.
>> Not an AMSAT-NA member? Join now to support the amateur satellite program!
>> Subscription settings: http://amsat.org/mailman/listinfo/amsat-bb
>



------------------------------

Message: 9
Date: Sun, 30 Oct 2011 14:32:28 -0400
From: "Mark L. Hammond" <marklhammond@xxxxx.xxx>
To: Carl Rimmer W8KRF <w8krf@xxxxx.xxx>, amsat-bb@xxxxx.xxx
Subject: [amsat-bb] Re: Keps! new cubesats...
Message-ID: <r6YV1h0024ltuWb056YVNs@xxxxx.xxx>
Content-Type: text/plain; charset="us-ascii"

Carl,

James Cutler "is" RAX-2...he's the faculty advisor to the students who built
it.

The website is most certainly behind, because we are just now getting KEPS
via SpaceTrack.

RAX-2 is probably one of the objects C, D, E, F, G listed below--but most
likely NOT A, B, or H.

Here they are again--grabbed just now:


OBJECT A
1 37849U 11061A   11302.66421759 +.00000178 +00000-0 +10000-3 0 00099
2 37849 098.7116 238.9909 0001984 118.3667 333.6358 14.22213241000181
OBJECT B
1 37850U 11061B   11302.62545336 +.00000480 +00000-0 +51357-4 0 00069
2 37850 101.6952 233.0228 0253352 289.9995 191.7441 14.77439893000169
OBJECT C
1 37851U 11061C   11302.94063822 +.00148715 +00000-0 +11864-1 0 00048
2 37851 101.7071 233.4846 0255164 289.2247 068.1438 14.77565457000225
OBJECT D
1 37852U 11061D   11302.94064686 +.00001317 +00000-0 +11875-3 0 00172
2 37852 101.7026 233.4847 0255574 288.8425 068.5226 14.77447189000225
OBJECT E
1 37853U 11061E   11302.94060934 +.00035908 +00000-0 +29140-2 0 00036
2 37853 101.6965 233.4869 0254859 289.2129 068.1595 14.77516832000229
OBJECT F
1 37854U 11061F   11303.54982327  .00014649  00000-0  11859-2 0    30
2 37854 101.6986 234.3636 0256120 286.9239 070.4027 14.77691305   296
OBJECT G
1 37855U 11061G   11302.87272701  .00005061  00000-0  41578-3 0    34
2 37855 101.7081 233.4066 0257546 289.0631 068.2617 14.77654712   194
